Location: Banios
(43.0451°N, 0.2335°E)
Time: 04:49:00
(UTC+00:00)

FALCON 9 DEB - Pass Details

Date: 25 January 2021
Orbit: 377 x 389 km, 53.0° (Epoch: 26 February)

Event Time Altitude Azimuth Distance (km) Brightness Sun altitude
Exits shadow 06:41:19 - 239° (WSW) 2,201 6.3 -7.5°
Reaches altitude 10° 06:43:15 10° 242° (WSW) 1,404 5.3 -7.2°
Maximum altitude 06:46:22 67° 326° (NW) 418 2.8 -6.7°
Drops below altitude 10° 06:49:29 10° 50° (NE) 1,402 6.1 -6.1°
Sets 06:51:33 0° 53° (NE) 2,255 7.2 -5.8°
